ランキン彗星

P/2024 T2 ( Rankin )

English version
Home page
Updated on March 23, 2025

---------------------------------------------------------------------

・ プロフィール

発見日 2024年10月4日
発見光度 21.1等
発見者 David Rankin (Mt. Lemmon Survey)

・ 写真集

・ 軌道要素

Epoch 2025 May 5.0 TT = JDT 2460800.5
T 2024 Dec. 8.33150 TT                                  Pike
q   1.9722920            (2000.0)            P               Q
n   0.06427297     Peri.  343.82683     -0.12642874     -0.97037945
a   6.1723492      Node   113.06132     +0.93311211     -0.18676195
e   0.6804633      Incl.   12.92897     +0.33662674     +0.15324388
P  15.3
From 339 observations 2024 Oct. 4-2025 Feb. 26, mean residual 0".4.

・ 光度変化

        m1 = 7.7 + 5 logΔ + 30.0 log r(t - 60)

---------------------------------------------------------------------

軌道要素はM.P.E.C. 2025-D254に掲載されたものです。
光度グラフはComet for Windowsで作成したものです。

---------------------------------------------------------------------

Copyright(C) Seiichi Yoshida (comet@aerith.net). All rights reserved.